Weather History for KTBN - October, 2013

Change the Weather History Date:

Monday, October 28, 2013

  Actual Average Record
Temperature  
Mean Temperature 52 °F -  
Max Temperature 69 °F 63 °F 80 °F (1999)
Min Temperature 36 °F 47 °F 24 °F (2008)
Degree Days  
Heating Degree Days 13    
Growing Degree Days 2 (Base 50)    
Moisture  
Dew Point 45 °F    
Average Humidity 85    
Maximum Humidity 100    
Minimum Humidity 39    
Precipitation  
Precipitation 0.00 in - - ()
Sea Level Pressure  
Sea Level Pressure 30.16 in    
Wind  
Wind Speed 4 mph (South)    
Max Wind Speed 7 mph    
Max Gust Speed -    
Visibility 7 miles    
Events Fog    
Averages and records for this station are not official NWS values.
T = Trace of Precipitation, MM = Missing Value Source: NWS Daily Summary

Daily Weather History Graph

Daily Weather History Graph

Search for Another Location

Airport or City:

Trip Planner

Search our weather history database for the weather conditions in past years. The results will help you decide how hot, cold, wet, or windy it might be!

Date:

Astronomy

Oct. 28, 2013 Rise Set
Actual Time 7:29 AM CDT 6:14 PM CDT
Civil Twilight 7:02 AM CDT 6:41 PM CDT
Nautical Twilight 6:32 AM CDT 7:11 PM CDT
Astronomical Twilight 6:01 AM CDT 7:42 PM CDT
Moon 1:29 AM CDT (10/28) 2:50 PM CDT (10/28)
Length of Visible Light 11h 38m
Length of Day
10h 44m
Waning Crescent, 34% of the Moon is Illuminated
Oct 28
Waning Crescent
Nov 3
New
Nov 9
First Quarter
Nov 17
Full
Nov 25
Last Quarter

Hourly Weather History & Observations

Time (CDT) Temp. Windchill Dew Point Humidity Pressure Visibility Wind Dir Wind Speed Gust Speed Precip Events Conditions
12:58 AM 41.2 °F 38.2 °F 39.0 °F 92% 30.06 in 10.0 mi South 4.6 mph - N/A   Clear
1:58 AM 39.0 °F - 38.5 °F 98% 30.06 in 10.0 mi SSW 2.3 mph - N/A   Clear
2:58 AM 38.3 °F 33.9 °F 37.9 °F 99% 30.07 in 10.0 mi SSE 5.8 mph - N/A   Clear
3:58 AM 37.2 °F 33.6 °F 37.0 °F 99% 30.09 in 10.0 mi SSE 4.6 mph - N/A   Clear
4:58 AM 37.8 °F 34.2 °F 37.8 °F 100% 30.09 in 10.0 mi SSE 4.6 mph - N/A   Clear
5:58 AM 36.9 °F 34.3 °F 36.9 °F 100% 30.12 in 9.0 mi South 3.5 mph - N/A   Clear
6:58 AM 37.6 °F - 37.6 °F 100% 30.15 in 8.0 mi SSW 2.3 mph - N/A   Clear
7:33 AM 41.0 °F 37.1 °F 41.0 °F 100% 30.14 in 1.5 mi SW 5.8 mph - N/A   Partly Cloudy
7:38 AM 41.0 °F 38.0 °F 41.0 °F 100% 30.14 in 0.5 mi SW 4.6 mph - N/A Fog Fog
7:43 AM 42.8 °F - 42.8 °F 100% 30.14 in 0.2 mi Variable 2.3 mph - N/A Fog Fog
7:58 AM 42.3 °F 39.4 °F 42.3 °F 100% 30.16 in 0.2 mi Variable 4.6 mph - N/A Fog Fog
8:58 AM 44.6 °F - 44.6 °F 100% 30.18 in 0.2 mi SSW 2.3 mph - N/A Fog Fog
9:58 AM 48.2 °F - 48.2 °F 100% 30.21 in 0.2 mi SW 4.6 mph - N/A Fog Fog
10:18 AM 50.0 °F - 50.0 °F 100% 30.20 in 0.2 mi Variable 2.3 mph - N/A Fog Fog
10:33 AM 50.0 °F - 50.0 °F 100% 30.20 in 1.0 mi Variable 1.2 mph - N/A   Mist
10:38 AM 51.8 °F - 51.8 °F 100% 30.20 in 3.0 mi Calm Calm - N/A   Overcast
10:58 AM 53.1 °F - 53.1 °F 100% 30.22 in 10.0 mi Variable 1.2 mph - N/A   Mostly Cloudy
11:03 AM 53.6 °F - 53.6 °F 100% 30.20 in 10.0 mi Variable 3.5 mph - N/A   Scattered Clouds
11:58 AM 61.7 °F - 53.8 °F 75% 30.21 in 10.0 mi SSE 2.3 mph - N/A   Clear
12:58 PM 65.5 °F - 48.7 °F 55% 30.19 in 10.0 mi Variable 2.3 mph - N/A   Clear
1:58 PM 67.1 °F - 49.1 °F 52% 30.16 in 10.0 mi Variable 5.8 mph - N/A   Clear
2:58 PM 68.7 °F - 44.1 °F 41% 30.14 in 10.0 mi Variable 2.3 mph - N/A   Clear
3:58 PM 68.4 °F - 42.4 °F 39% 30.14 in 10.0 mi SSE 6.9 mph - N/A   Clear
4:58 PM 67.8 °F - 46.2 °F 46% 30.14 in 10.0 mi South 5.8 mph - N/A   Clear
5:58 PM 64.8 °F - 45.9 °F 50% 30.15 in 10.0 mi South 3.5 mph - N/A   Clear
6:58 PM 57.9 °F - 46.9 °F 67% 30.17 in 10.0 mi South 4.6 mph - N/A   Clear
7:58 PM 55.9 °F - 47.3 °F 73% 30.19 in 10.0 mi SSE 4.6 mph - N/A   Clear
8:58 PM 54.5 °F - 48.9 °F 81% 30.21 in 10.0 mi SSE 2.3 mph - N/A   Clear
9:58 PM 50.7 °F - 47.8 °F 90% 30.22 in 10.0 mi SE 5.8 mph - N/A   Clear
10:58 PM 50.7 °F - 47.7 °F 89% 30.21 in 10.0 mi South 4.6 mph - N/A   Clear
11:58 PM 49.3 °F - 47.7 °F 94% 30.21 in 10.0 mi South 3.5 mph - N/A   Scattered Clouds